Location: Kellogg
(38.0159°N, 90.0546°W)
Time: 23:24:33
(UTC+00:00)

SR - Pass Details

Date: 15 September 2024
Orbit: 578 x 855 km, 66.7° (Epoch: 09 October)

Event Time Altitude Azimuth Distance (km) Brightness Sun altitude
Rises 03:49:30 0° 337° (NNW) 2,952 ? -39.8°
Reaches altitude 10° 03:51:48 10° 344° (NNW) 2,079 ? -40.1°
Enters shadow 03:51:50 10° 344° (NNW) 2,062 ? -40.1°
Maximum altitude 03:56:21 48° 59° (ENE) 912 - -40.7°
Drops below altitude 10° 04:01:17 10° 133° (SE) 2,244 - -41.4°
Sets 04:03:50 0° 139° (SE) 3,211 - -41.7°
